Theta_e
304 304 304 305 305 306 307 308 312 308 306 306 305 304 303 304 304 305 305 306 307 308 309 310 311 312 313 312 311 309 309 309 308 308 307 306 303 299 297 295 293 292 291 290
307 305 304 304 304 304 303 303 303 304 303 304 304 303 302 303 304 304 304 306 307 307 309 310 311 311 312 312 311 310 309 308 308 307 307 304 300 297 296 293 292 290 290 289
307 304 303 306 305 303 303 303 302 303 303 302 302 302 303 304 304 303 306 307 308 310 310 310 310 311 311 312 311 310 309 308 307 306 304 302 299 296 294 293 291 291 290 288
306 303 305 303 302 302 301 301 300 300 301 301 302 303 303 304 304 309 309 309 309 309 309 309 309 310 310 311 312 311 309 308 306 305 303 298 297 296 293 292 291 290 288 287
304 302 300 299 300 300 300 300 300 302 301 301 300 301 302 303 306 307 306 307 307 308 307 307 308 309 309 310 311 311 310 308 306 303 301 298 296 294 292 290 289 288 288 287
301 302 302 300 300 300 299 300 301 301 300 300 302 304 305 306 305 305 305 306 306 307 307 306 307 308 308 309 311 311 309 307 305 301 299 296 293 290 289 288 288 288 287 287
300 302 301 300 300 299 299 300 300 300 299 301 302 301 300 301 302 304 304 305 307 306 306 306 307 307 307 308 308 305 304 302 299 297 293 290 289 288 289 288 287 287 286 286
300 301 301 299 299 299 300 299 300 300 302 302 301 300 299 302 303 304 304 303 305 306 305 306 306 306 306 298 295 298 299 296 294 293 291 289 289 288 288 287 287 286 286 285
299 299 299 299 298 299 299 299 299 300 299 300 299 299 299 301 304 304 303 303 304 305 305 305 303 302 301 292 293 294 293 291 290 289 288 288 288 288 288 287 286 285 284 284
298 298 298 298 299 299 300 300 300 301 301 300 299 298 300 302 304 303 302 303 304 305 305 303 300 297 294 291 291 291 289 289 288 288 288 288 288 287 286 286 285 284 284 283
297 298 299 299 299 299 300 300 300 300 301 301 300 301 303 303 302 302 302 302 304 304 304 301 295 293 290 290 290 289 289 288 288 288 288 287 287 286 286 285 285 284 284 284
302 299 301 300 300 300 300 300 300 300 301 301 301 302 303 301 301 301 303 303 303 302 301 297 293 291 290 290 290 289 289 288 288 288 288 287 286 285 285 285 284 285 285 284
299 299 299 300 299 299 299 300 300 300 300 300 301 302 301 301 301 301 303 303 302 301 297 294 292 290 290 291 290 290 290 289 288 288 287 286 285 284 282 281 283 283 283 283
298 298 299 298 300 300 301 301 301 300 300 301 301 301 301 301 301 297 295 297 298 296 293 291 291 290 290 290 290 289 289 288 288 288 287 286 285 284 283 282 281 279 279 279
299 299 299 300 301 301 300 301 301 302 301 301 301 301 301 301 303 294 293 292 292 291 290 289 288 288 288 288 288 288 288 288 287 287 286 286 285 285 284 284 283 281 279 278
300 301 300 300 302 300 299 300 301 301 302 302 301 301 301 302 296 292 290 290 290 290 289 288 287 287 287 287 287 287 287 287 287 286 286 285 284 284 284 284 283 282 281 280
299 299 298 297 297 297 298 299 299 300 301 302 302 302 302 300 293 290 289 289 290 289 288 287 286 286 286 287 287 287 287 286 286 286 285 285 285 284 284 283 283 282 282 282
297 297 295 296 295 295 296 297 298 300 301 301 300 295 294 293 293 290 289 288 288 287 286 285 284 285 285 286 286 286 286 285 286 286 285 284 284 283 283 283 282 282 282 279
295 295 294 295 294 293 294 296 297 299 298 295 294 293 292 291 290 289 287 288 288 286 284 283 284 284 285 285 286 286 285 285 285 285 284 283 283 283 282 282 281 281 281 279
294 294 294 293 293 294 295 295 295 298 295 293 291 291 291 289 288 288 288 289 289 287 284 283 284 284 284 284 285 285 285 285 285 284 283 283 283 282 282 281 281 281 280 280
294 294 293 292 291 293 293 294 294 293 291 291 291 291 290 289 288 288 289 289 285 284 284 284 284 284 283 284 285 285 285 285 284 284 282 283 282 282 281 281 280 280 280 279
293 293 292 291 290 292 290 291 291 291 291 291 290 290 289 288 288 289 288 289 285 284 284 285 285 284 284 283 285 285 284 284 284 283 282 282 282 282 281 281 280 280 279 279
292 292 292 290 289 290 289 290 290 290 291 290 289 289 289 288 289 289 289 286 285 284 285 285 284 283 282 284 283 284 284 283 283 283 282 282 282 281 281 280 280 279 279 278
292 291 292 290 289 292 290 288 289 289 289 288 288 289 289 290 290 290 289 285 284 283 286 284 282 281 282 283 283 283 282 282 282 282 281 281 281 281 280 280 278 278 278 276
291 291 292 292 290 291 290 289 289 288 288 288 288 287 290 291 290 289 286 284 283 284 284 281 280 281 283 282 282 282 282 281 281 281 281 280 280 279 279 278 277 277 276 275
291 291 292 292 292 289 289 292 294 293 292 290 288 287 288 289 289 287 285 283 283 285 283 280 280 281 282 282 282 281 281 281 280 280 280 279 279 278 278 277 276 275 274 273
290 290 291 292 292 291 290 291 292 293 291 291 291 287 287 286 286 286 284 283 283 283 282 280 280 281 282 281 281 280 280 279 279 279 279 279 278 277 276 275 274 273 271 269
Wind_Speed
24 24 23 23 21 19 22 19 17 24 24 26 21 23 23 19 14 15 16 15 13 13 13 12 14 14 11 12 13 16 19 22 24 24 28 27 30 32 35 36 33 32 31 29
17 18 18 21 22 22 23 25 26 26 26 26 22 19 17 17 18 17 18 17 14 15 16 14 14 16 18 11 14 16 18 22 23 25 26 27 28 30 30 34 35 35 31 34
15 17 18 12 17 21 23 23 23 23 23 23 21 20 18 16 16 19 21 15 14 11 13 15 18 17 21 16 15 18 20 21 22 24 28 29 30 31 32 31 29 30 32 33
13 18 20 19 20 23 24 23 21 21 22 24 22 19 21 18 15 15 15 15 12 10 13 17 18 20 21 22 16 18 20 20 22 23 25 28 29 32 32 32 31 32 32 32
13 17 22 26 25 25 25 25 20 22 19 21 24 23 19 19 11 11 14 18 16 17 15 18 20 19 21 22 19 18 20 20 22 26 28 29 28 29 30 33 32 32 33 32
15 19 22 22 22 19 18 15 24 20 21 23 16 13 13 20 18 20 16 19 16 17 15 19 20 17 19 19 16 15 17 16 17 27 29 30 32 32 30 32 31 30 29 29
14 18 19 22 21 22 19 19 21 20 19 19 12 12 23 21 23 22 16 20 26 14 17 20 16 16 18 15 8 5 7 11 22 27 30 29 30 31 33 29 28 28 28 26
15 20 27 22 24 22 18 17 21 21 19 15 18 20 25 23 21 19 16 19 20 16 15 17 13 14 15 7 3 11 19 24 27 30 33 34 32 28 28 29 28 26 26 23
18 17 23 25 26 24 24 24 25 22 23 27 26 24 26 23 21 17 18 19 19 13 15 11 9 8 2 4 7 14 19 24 28 29 28 31 28 28 26 25 25 23 22 19
19 23 24 25 23 22 24 25 24 24 22 26 25 24 26 17 20 15 16 15 19 15 12 6 4 3 1 7 12 19 19 21 22 25 24 25 27 25 25 22 21 20 19 18
24 26 24 23 23 21 17 19 19 20 21 23 19 21 18 19 17 15 16 17 15 11 9 2 7 3 6 12 20 19 20 22 22 24 25 23 21 22 21 21 23 21 18 19
17 22 20 23 22 22 23 23 21 21 21 21 21 17 22 15 16 13 13 15 9 9 3 5 7 9 12 17 18 21 22 22 22 23 23 24 24 22 17 18 17 16 17 17
20 23 23 26 26 26 26 23 21 21 20 19 20 19 17 15 14 16 12 11 9 6 4 8 8 12 16 16 17 19 18 21 21 21 22 22 22 21 20 16 16 14 16 15
23 23 22 21 20 23 23 23 20 18 18 17 17 19 15 14 2 3 5 4 2 8 8 11 14 13 15 17 19 21 21 22 21 21 20 20 20 20 19 18 15 11 11 13
20 20 21 22 22 21 21 23 24 22 19 18 17 16 14 12 3 5 8 10 13 13 13 13 13 15 17 21 24 25 23 20 21 22 21 19 19 18 16 16 15 15 14 12
15 16 19 19 22 22 22 22 20 19 19 18 15 14 14 5 7 8 11 14 13 9 14 15 15 18 21 23 24 23 22 25 22 19 20 17 16 15 15 14 14 14 13 13
12 18 20 21 19 20 20 20 19 18 15 14 11 11 14 5 10 8 10 12 11 15 16 17 17 20 23 24 21 19 20 20 20 19 17 16 15 14 13 12 12 11 10 11
18 19 20 19 19 17 16 17 18 19 14 11 5 6 8 9 8 10 12 15 17 17 16 19 21 24 26 23 19 19 19 19 16 16 15 15 14 13 12 11 11 11 10 11
20 19 18 16 15 15 14 12 15 14 3 10 9 8 10 10 13 13 15 16 16 16 15 20 25 24 20 18 18 17 17 17 17 16 15 14 14 13 12 11 11 10 10 11
20 18 16 18 19 10 9 5 9 5 6 10 12 10 9 12 15 15 15 13 14 14 20 23 20 18 17 18 17 16 17 17 16 16 15 14 12 11 11 10 10 10 9 9
18 18 19 16 14 12 12 9 3 5 9 12 11 9 10 15 15 17 14 8 11 21 20 21 18 17 17 17 15 15 16 15 15 14 14 13 12 12 11 11 10 9 8 8
15 15 15 14 12 10 12 10 5 7 9 11 13 15 16 15 15 12 6 14 18 21 21 17 16 17 17 17 14 15 15 14 14 13 13 12 11 11 11 10 9 8 7 6
13 13 13 11 11 11 10 8 2 6 8 11 13 15 14 16 16 11 7 16 20 20 19 16 18 19 21 12 16 14 14 14 13 12 12 11 11 11 10 9 9 7 7 7
14 17 15 15 15 8 6 6 4 6 8 10 12 14 16 14 11 11 11 18 19 24 16 18 21 22 19 16 15 14 13 13 12 11 11 11 10 9 9 8 8 7 5 5
17 17 16 12 9 7 7 4 1 4 6 8 8 10 11 12 11 12 15 18 23 21 16 17 19 21 16 15 14 14 13 13 12 11 11 11 9 9 7 7 6 6 6 4
15 10 15 15 11 10 11 6 5 4 6 7 8 10 9 10 10 14 15 17 21 19 15 17 19 19 15 15 14 13 12 12 12 11 11 11 9 9 8 7 6 5 4 5
15 15 14 13 13 8 8 9 8 5 7 7 8 12 12 11 13 14 16 18 19 18 16 18 19 18 16 16 15 14 13 12 13 12 11 9 9 8 8 7 6 5 5 5
Wind_Direction
267 268 266 268 276 278 271 260 254 277 278 285 283 292 300 296 293 296 306 308 296 295 293 297 294 289 242 255 240 223 220 211 210 209 207 197 188 173 168 168 168 164 156 154
279 287 283 276 269 267 267 269 274 281 284 282 283 286 289 304 298 311 308 301 295 292 293 301 305 310 305 262 251 234 223 218 209 198 198 187 175 172 174 168 168 162 159 152
267 280 279 280 260 266 272 274 273 273 283 292 293 290 290 289 295 305 294 287 288 316 314 310 305 303 299 285 250 239 226 218 211 203 181 182 174 176 173 173 168 161 155 150
275 280 267 268 266 274 277 283 284 281 281 278 285 299 304 302 318 7 346 323 314 302 296 300 304 302 298 291 261 229 226 217 210 194 185 171 176 179 172 169 164 156 150 152
267 267 275 277 272 278 281 282 306 297 285 305 297 290 287 279 15 322 316 298 296 286 314 307 294 299 307 297 271 244 226 219 212 188 179 173 177 176 168 156 153 152 158 158
259 259 265 273 281 296 314 296 272 272 279 279 298 307 304 330 335 313 310 297 282 293 309 295 294 304 300 298 287 255 232 216 209 165 173 169 163 160 159 153 156 156 151 151
264 268 273 274 292 303 288 276 292 291 286 281 291 304 308 302 303 297 304 312 308 300 289 293 294 296 299 306 317 107 131 157 148 152 150 149 149 153 156 153 145 141 140 150
269 266 270 276 271 260 283 304 298 304 297 278 286 301 299 294 288 289 290 290 288 304 293 296 297 296 287 65 77 131 140 145 150 157 156 156 155 155 148 142 136 135 139 143
273 276 286 299 295 291 292 293 292 288 276 281 287 290 289 289 299 290 292 289 289 286 294 295 299 305 287 128 138 134 141 139 143 145 150 153 145 138 134 136 137 138 140 142
281 277 280 277 280 290 290 289 292 293 293 284 278 276 271 283 277 293 294 298 306 303 283 275 305 58 113 148 151 139 125 125 131 132 131 133 134 135 134 140 141 144 145 149
280 281 288 291 282 279 284 286 287 285 280 284 281 272 284 267 281 285 293 296 298 284 281 269 96 112 152 151 140 123 122 123 124 129 131 130 127 136 139 146 152 154 160 162
272 277 273 272 275 273 275 274 267 265 271 276 274 273 264 276 279 284 287 288 267 262 230 125 124 155 153 145 136 135 127 127 132 134 132 129 123 111 126 141 149 159 166 168
271 278 287 294 297 287 278 279 276 276 273 261 255 259 269 273 276 280 287 269 255 236 174 156 146 153 158 149 145 144 139 135 136 136 134 131 127 122 117 111 139 153 162 161
287 286 285 292 297 306 303 289 277 263 258 261 262 262 263 267 271 109 101 105 139 139 144 151 147 152 158 150 145 138 137 137 138 136 133 131 131 133 139 142 138 131 146 150
310 302 287 289 285 276 277 285 279 276 260 253 252 261 263 267 196 175 142 146 141 141 144 149 138 142 152 151 139 137 136 132 130 130 131 133 134 136 143 153 156 157 154 151
308 296 289 280 279 289 292 281 268 268 271 264 254 254 265 234 134 158 157 156 150 156 156 148 138 143 145 143 134 128 125 127 127 129 132 136 142 145 151 156 155 160 170 175
307 306 313 305 296 292 285 279 283 273 264 263 264 282 283 179 119 150 154 158 158 147 153 144 137 141 141 138 129 128 136 139 137 143 148 152 151 154 159 160 164 172 177 176
303 307 313 299 293 290 277 266 266 272 266 248 254 112 107 137 168 160 156 141 131 131 136 140 141 139 137 134 137 139 141 141 145 147 152 152 155 158 161 166 173 178 168 152
326 319 306 302 302 291 273 257 250 254 279 133 141 143 142 146 149 148 151 147 141 136 137 141 142 139 136 138 139 140 143 146 147 152 152 148 155 160 164 171 176 184 183 169
324 326 322 326 324 322 324 250 245 220 141 135 124 132 138 141 144 153 152 147 153 143 143 144 138 140 145 145 144 145 148 150 153 148 151 160 160 162 170 179 182 187 195 201
330 332 336 336 330 341 4 11 148 136 139 147 147 149 144 143 151 149 140 135 127 143 145 145 149 148 149 150 149 149 153 151 145 153 159 163 164 171 177 184 190 193 197 212
333 332 332 335 334 339 360 10 65 118 136 139 137 136 136 142 146 144 135 156 153 150 152 155 157 157 158 157 150 151 154 156 157 160 167 168 172 182 182 185 192 200 208 213
330 332 331 337 334 329 341 360 41 138 136 135 140 145 154 157 160 157 138 151 155 160 159 161 164 164 159 146 147 154 155 158 162 168 171 175 179 183 184 190 197 204 210 215
332 336 331 337 331 334 350 4 50 98 123 141 148 157 153 156 160 168 150 158 161 162 162 164 171 165 150 148 156 161 164 167 170 173 174 176 180 180 188 186 196 196 199 200
329 327 331 340 340 343 335 337 62 116 129 128 137 148 162 166 152 153 153 161 166 160 157 165 164 158 154 161 166 170 173 176 176 173 175 179 178 182 185 189 192 205 202 201
327 327 323 325 316 316 312 300 280 195 172 157 163 168 172 164 168 160 161 163 165 163 162 166 165 164 165 170 171 173 175 173 174 173 172 178 177 183 184 185 171 183 196 215
330 326 323 322 328 313 306 299 299 270 221 193 178 177 176 175 169 168 165 164 166 163 166 167 170 171 172 170 171 171 169 169 172 169 171 168 176 180 176 177 184 187 196 221